| time (UTC) | temp F | wind direction | speed MPH | gust MPH | rain 1hr in | rain 24hr in | rain mn in | humidity % | barometer mb |
| 20260903191505 | 79 | 229 | 4.0 | 17.0 | 0.00 | 0.00 | 0.00 | 26 | 1009.2 |
| 20260903190502 | 80 | 247 | 3.0 | 17.0 | 0.00 | 0.00 | 0.00 | 24 | 1009.5 |
| 20260903185459 | 80 | 166 | 2.0 | 13.0 | 0.00 | 0.00 | 0.00 | 28 | 1009.4 |
| 20260903184437 | 79 | 245 | 3.0 | 14.0 | 0.00 | 0.00 | 0.00 | 24 | 1009.7 |
| 20260903183426 | 78 | 223 | 3.0 | 18.0 | 0.00 | 0.00 | 0.00 | 26 | 1009.8 |
| 20260903182409 | 78 | 240 | 4.0 | 18.0 | 0.00 | 0.00 | 0.00 | 27 | 1009.9 |
| 20260903181340 | 77 | 212 | 4.0 | 18.0 | 0.00 | 0.00 | 0.00 | 29 | 1010.1 |
| 20260903175225 | 77 | 103 | 5.0 | 17.0 | 0.00 | 0.00 | 0.00 | 30 | 1010.4 |
| 20260903174203 | 76 | 153 | 4.0 | 13.0 | 0.00 | 0.00 | 0.00 | 30 | 1010.5 |
| 20260903173226 | 76 | 226 | 6.0 | 14.0 | 0.00 | 0.00 | 0.00 | 30 | 1010.7 |
| 20260903172156 | 76 | 116 | 5.0 | 22.0 | 0.00 | 0.00 | 0.00 | 30 | 1010.7 |
| 20260903171127 | 75 | 227 | 7.0 | 22.0 | 0.00 | 0.00 | 0.00 | 30 | 1010.6 |
| 20260903170141 | 75 | 224 | 6.0 | 17.0 | 0.00 | 0.00 | 0.00 | 31 | 1010.5 |
| 20260903165206 | 75 | 148 | 5.0 | 15.0 | 0.00 | 0.00 | 0.00 | 33 | 1010.6 |
| 20260903164144 | 74 | 203 | 0.0 | 5.0 | 0.00 | 0.00 | 0.00 | 44 | 1010.5 |
| 20260903163112 | 72 | 350 | 0.0 | 2.0 | 0.00 | 0.00 | 0.00 | 53 | 1010.6 |
| 20260903160946 | 67 | 8 | 0.0 | 2.0 | 0.00 | 0.00 | 0.00 | 58 | 1011.1 |
| 20260903160003 | 65 | 314 | 0.0 | 3.0 | 0.00 | 0.00 | 0.00 | 61 | 1011.1 |
| 20260903154956 | 63 | 0 | 0.0 | 3.0 | 0.00 | 0.00 | 0.00 | 63 | 1011.3 |
| 20260903153943 | 63 | 11 | 0.0 | 1.0 | 0.00 | 0.00 | 0.00 | 66 | 1011.5 |
| 20260903152934 | 62 | 243 | 0.0 | 1.0 | 0.00 | 0.00 | 0.00 | 67 | 1011.6 |
| 20260903150741 | 59 | 339 | 0.0 | 0.0 | 0.00 | 0.00 | 0.00 | 73 | 1011.8 |
| 20260903145746 | 58 | 291 | 0.0 | 0.0 | 0.00 | 0.00 | 0.00 | 76 | 1012.0 |
| 20260903144730 | 58 | 16 | 0.0 | 0.0 | 0.00 | 0.00 | 0.00 | 75 | 1012.0 |
| 20260903143741 | 55 | 77 | 0.0 | 0.0 | 0.00 | 0.00 | 0.00 | 81 | 1012.2 |
| 20260903141626 | 52 | 136 | 0.0 | 0.0 | 0.00 | 0.00 | 0.00 | 95 | 1012.3 |
| 20260903140614 | 50 | 136 | 0.0 | 0.0 | 0.00 | 0.00 | 0.00 | 97 | 1012.3 |
| 20260903135617 | 48 | 137 | 0.0 | 0.0 | 0.00 | 0.00 | 0.00 | 97 | 1012.4 |
| 20260903134616 | 46 | 137 | 0.0 | 0.0 | 0.00 | 0.00 | 0.00 | 97 | 1012.5 |
| 20260903132529 | 45 | 137 | 0.0 | 0.0 | 0.00 | 0.00 | 0.00 | 97 | 1012.2 |
| 20260903131455 | 45 | 136 | 0.0 | 0.0 | 0.00 | 0.00 | 0.00 | 97 | 1012.1 |
| 20260903130432 | 45 | 139 | 0.0 | 0.0 | 0.00 | 0.00 | 0.00 | 97 | 1012.0 |
| 20260903125432 | 45 | 161 | 0.0 | 0.0 | 0.00 | 0.00 | 0.00 | 97 | 1011.7 |
| 20260903123321 | 45 | 18 | 0.0 | 0.0 | 0.00 | 0.00 | 0.00 | 96 | 1011.5 |
| 20260903120124 | 45 | 132 | 0.0 | 0.0 | 0.00 | 0.00 | 0.00 | 96 | 1011.1 |
| 20260903112837 | 46 | 122 | 0.0 | 0.0 | 0.00 | 0.00 | 0.00 | 96 | 1010.9 |
| 20260903111850 | 46 | 121 | 0.0 | 0.0 | 0.00 | 0.00 | 0.00 | 96 | 1010.9 |
| 20260903105651 | 47 | 148 | 0.0 | 0.0 | 0.00 | 0.00 | 0.00 | 96 | 1010.8 |
| 20260903104659 | 47 | 148 | 0.0 | 0.0 | 0.00 | 0.00 | 0.00 | 96 | 1010.8 |
| 20260903103631 | 47 | 67 | 0.0 | 0.0 | 0.00 | 0.00 | 0.00 | 96 | 1010.9 |
| 20260903102556 | 47 | 67 | 0.0 | 0.0 | 0.00 | 0.00 | 0.00 | 95 | 1011.0 |
| 20260903101547 | 47 | 67 | 0.0 | 0.0 | 0.00 | 0.00 | 0.00 | 95 | 1011.0 |
| 20260903100559 | 48 | 66 | 0.0 | 0.0 | 0.00 | 0.00 | 0.00 | 95 | 1011.1 |
| 20260903094505 | 48 | 66 | 0.0 | 0.0 | 0.00 | 0.00 | 0.00 | 95 | 1011.0 |
| 20260903091209 | 49 | 36 | 0.0 | 0.0 | 0.00 | 0.00 | 0.00 | 94 | 1010.9 |
| 20260903090210 | 49 | 36 | 0.0 | 0.0 | 0.00 | 0.01 | 0.00 | 94 | 1010.9 |
| 20260903085135 | 50 | 36 | 0.0 | 0.0 | 0.00 | 0.01 | 0.00 | 94 | 1011.1 |
| 20260903084119 | 50 | 335 | 0.0 | 0.0 | 0.00 | 0.01 | 0.00 | 93 | 1011.0 |
| 20260903083058 | 50 | 335 | 0.0 | 0.0 | 0.00 | 0.01 | 0.00 | 93 | 1010.9 |
| 20260903082117 | 51 | 335 | 0.0 | 0.0 | 0.00 | 0.01 | 0.00 | 93 | 1010.9 |
| 20260903081117 | 51 | 336 | 0.0 | 0.0 | 0.00 | 0.01 | 0.00 | 93 | 1010.8 |
| 20260903080131 | 51 | 336 | 0.0 | 0.0 | 0.00 | 0.01 | 0.00 | 92 | 1010.8 |
| 20260903075103 | 52 | 335 | 0.0 | 0.0 | 0.00 | 0.01 | 0.00 | 92 | 1010.8 |
| 20260903074112 | 52 | 335 | 0.0 | 0.0 | 0.00 | 0.01 | 0.00 | 91 | 1011.0 |
| 20260903073113 | 52 | 335 | 0.0 | 0.0 | 0.00 | 0.01 | 0.00 | 91 | 1010.9 |
| 20260903071025 | 53 | 152 | 0.0 | 0.0 | 0.00 | 0.01 | 0.00 | 90 | 1010.7 |
| 20260903070047 | 53 | 335 | 0.0 | 7.0 | 0.00 | 0.01 | 0.00 | 91 | 1010.7 |
| 20260903065049 | 53 | 125 | 0.0 | 0.0 | 0.00 | 0.01 | 0.00 | 90 | 1011.5 |
| 20260903062954 | 54 | 164 | 0.0 | 0.0 | 0.00 | 0.01 | 0.00 | 89 | 1010.8 |
| 20260903061920 | 53 | 142 | 0.0 | 4.0 | 0.00 | 0.01 | 0.00 | 90 | 1011.1 |
| 20260903060907 | 53 | 137 | 0.0 | 1.0 | 0.00 | 0.01 | 0.00 | 90 | 1011.1 |
| 20260903055842 | 53 | 160 | 0.0 | 0.0 | 0.00 | 0.01 | 0.01 | 91 | 1011.3 |
| 20260903053630 | 54 | 174 | 0.0 | 0.0 | 0.00 | 0.01 | 0.01 | 90 | 1011.1 |
| 20260903052636 | 54 | 250 | 0.0 | 0.0 | 0.00 | 0.01 | 0.01 | 89 | 1011.1 |
| 20260903051601 | 55 | 359 | 0.0 | 0.0 | 0.00 | 0.01 | 0.01 | 89 | 1011.0 |
| 20260903050625 | 55 | 359 | 0.0 | 1.0 | 0.00 | 0.01 | 0.01 | 89 | 1010.9 |
| 20260903044530 | 55 | 134 | 0.0 | 0.0 | 0.00 | 0.01 | 0.01 | 88 | 1011.1 |
| 20260903043555 | 55 | 134 | 0.0 | 2.0 | 0.00 | 0.01 | 0.01 | 89 | 1011.1 |
| 20260903042533 | 56 | 148 | 0.0 | 2.0 | 0.00 | 0.01 | 0.01 | 88 | 1011.1 |
| 20260903041542 | 56 | 132 | 0.0 | 0.0 | 0.00 | 0.01 | 0.01 | 86 | 1011.2 |
| 20260903034256 | 58 | 172 | 0.0 | 0.0 | 0.00 | 0.01 | 0.01 | 84 | 1010.9 |
| 20260903033236 | 58 | 172 | 0.0 | 0.0 | 0.00 | 0.01 | 0.01 | 84 | 1010.8 |
| 20260903032207 | 59 | 172 | 0.0 | 0.0 | 0.00 | 0.01 | 0.01 | 83 | 1010.5 |
| 20260903031204 | 60 | 172 | 0.0 | 0.0 | 0.00 | 0.01 | 0.01 | 82 | 1010.3 |
| 20260903030229 | 60 | 148 | 0.0 | 0.0 | 0.00 | 0.01 | 0.01 | 81 | 1010.2 |
| 20260903025233 | 61 | 126 | 0.0 | 1.0 | 0.00 | 0.01 | 0.01 | 78 | 1010.0 |
| 20260903024222 | 61 | 128 | 0.0 | 0.0 | 0.00 | 0.01 | 0.01 | 76 | 1010.1 |
| 20260903023200 | 61 | 128 | 0.0 | 0.0 | 0.00 | 0.01 | 0.01 | 75 | 1009.8 |
| 20260903022131 | 62 | 347 | 0.0 | 0.0 | 0.00 | 0.01 | 0.01 | 72 | 1009.4 |
| 20260903021148 | 62 | 347 | 0.0 | 0.0 | 0.00 | 0.01 | 0.01 | 73 | 1009.0 |
| 20260903020200 | 62 | 290 | 0.0 | 0.0 | 0.00 | 0.01 | 0.01 | 73 | 1008.8 |
| 20260903015207 | 63 | 290 | 0.0 | 0.0 | 0.00 | 0.01 | 0.01 | 70 | 1008.5 |
| 20260903013039 | 65 | 290 | 0.0 | 0.0 | 0.00 | 0.01 | 0.01 | 68 | 1009.1 |
| 20260903012019 | 66 | 290 | 0.0 | 0.0 | 0.00 | 0.01 | 0.01 | 65 | 1009.3 |
| 20260903011005 | 67 | 0 | 0.0 | 0.0 | 0.00 | 0.01 | 0.01 | 65 | 1009.4 |
| 20260903005931 | 68 | 124 | 0.0 | 3.0 | 0.00 | 0.01 | 0.01 | 62 | 1009.3 |
| 20260903004909 | 70 | 27 | 0.0 | 2.0 | 0.00 | 0.01 | 0.01 | 61 | 1009.4 |
| 20260903003931 | 69 | 148 | 0.0 | 0.0 | 0.00 | 0.01 | 0.01 | 61 | 1009.7 |
| 20260903001822 | 69 | 148 | 0.0 | 5.0 | 0.00 | 0.01 | 0.01 | 61 | 1009.9 |
| 20260902235736 | 71 | 160 | 4.0 | 15.0 | 0.00 | 0.01 | 0.01 | 53 | 1010.1 |
| 20260902233632 | 74 | 257 | 1.0 | 5.0 | 0.00 | 0.01 | 0.01 | 47 | 1009.3 |
| 20260902232614 | 75 | 8 | 0.0 | 3.0 | 0.00 | 0.01 | 0.01 | 46 | 1009.4 |
| 20260902231627 | 74 | 243 | 1.0 | 9.0 | 0.00 | 0.01 | 0.01 | 48 | 1009.8 |
| 20260902230600 | 73 | 15 | 2.0 | 9.0 | 0.00 | 0.01 | 0.01 | 48 | 1009.9 |
| 20260902225616 | 74 | 338 | 1.0 | 8.0 | 0.00 | 0.01 | 0.01 | 44 | 1009.9 |
| 20260902224612 | 74 | 291 | 0.0 | 2.0 | 0.00 | 0.01 | 0.01 | 45 | 1009.7 |
| 20260902223541 | 74 | 133 | 0.0 | 0.0 | 0.00 | 0.01 | 0.01 | 43 | 1010.0 |
| 20260902222546 | 73 | 16 | 0.0 | 0.0 | 0.00 | 0.01 | 0.01 | 46 | 1010.4 |
| 20260902214219 | 72 | 354 | 2.0 | 8.0 | 0.00 | 0.01 | 0.01 | 49 | 1010.7 |
| 20260902212131 | 70 | 328 | 1.0 | 11.0 | 0.00 | 0.01 | 0.01 | 49 | 1011.0 |
| 20260902211120 | 70 | 346 | 3.0 | 11.0 | 0.00 | 0.01 | 0.01 | 50 | 1011.0 |
| 20260902210120 | 71 | 42 | 2.0 | 10.0 | 0.00 | 0.01 | 0.01 | 50 | 1011.6 |
| 20260902205054 | 70 | 111 | 2.0 | 13.0 | 0.00 | 0.01 | 0.01 | 52 | 1011.5 |
| 20260902204104 | 68 | 18 | 5.0 | 21.0 | 0.00 | 0.01 | 0.01 | 51 | 1011.7 |
| 20260902203050 | 70 | 243 | 6.0 | 21.0 | 0.00 | 0.01 | 0.01 | 47 | 1012.2 |
| 20260902202100 | 73 | 356 | 5.0 | 19.0 | 0.00 | 0.01 | 0.01 | 42 | 1012.0 |
| 20260902195947 | 79 | 249 | 3.0 | 13.0 | 0.00 | 0.01 | 0.01 | 32 | 1010.2 |
| 20260902193824 | 79 | 173 | 4.0 | 11.0 | 0.00 | 0.01 | 0.01 | 34 | 1010.3 |